Time,TemperatureF,DewpointF,PressureIn,WindDirection,WindDirectionDegrees,WindSpeedMPH,WindSpeedGustMPH,Humidity,HourlyPrecipIn,Conditions,Clouds,dailyrainin,SoftwareType,DateUTC
2013-05-18 00:00:00,47.8,43.5,30.30,South,175,0.0,0.0,85,0.00,,,0.00,VWS V14.01,2013-05-18 04:00:00,
2013-05-18 00:01:00,47.8,43.5,30.30,South,175,0.0,0.0,85,0.00,,CLR,0.00,VWS V14.01,2013-05-18 04:01:00,
2013-05-18 00:06:00,47.6,43.3,30.31,South,175,0.0,0.0,85,0.00,,CLR,0.00,VWS V14.01,2013-05-18 04:06:00,
2013-05-18 00:10:00,47.4,43.4,30.31,South,175,0.0,0.0,86,0.00,,,0.00,VWS V14.01,2013-05-18 04:10:00,
2013-05-18 00:11:00,47.5,43.5,30.31,South,175,0.0,0.0,86,0.00,,CLR,0.00,VWS V14.01,2013-05-18 04:11:00,
2013-05-18 00:16:00,47.4,43.4,30.31,South,175,0.0,0.0,86,0.00,,CLR,0.00,VWS V14.01,2013-05-18 04:16:00,
2013-05-18 00:20:00,47.3,43.3,30.31,South,175,0.0,0.0,86,0.00,,,0.00,VWS V14.01,2013-05-18 04:20:00,
2013-05-18 00:21:00,47.3,43.3,30.31,South,175,0.0,0.0,86,0.00,,CLR,0.00,VWS V14.01,2013-05-18 04:21:00,
2013-05-18 00:26:00,47.1,43.4,30.31,South,175,0.0,0.0,87,0.00,,CLR,0.00,VWS V14.01,2013-05-18 04:26:00,
2013-05-18 00:30:00,47.0,43.3,30.31,South,175,0.0,0.0,87,0.00,,,0.00,VWS V14.01,2013-05-18 04:30:00,
2013-05-18 00:31:00,47.0,43.3,30.31,South,175,0.0,0.0,87,0.00,,CLR,0.00,VWS V14.01,2013-05-18 04:31:00,
2013-05-18 00:36:00,46.9,43.5,30.31,South,175,0.0,0.0,88,0.00,,CLR,0.00,VWS V14.01,2013-05-18 04:36:00,
2013-05-18 00:40:00,46.8,43.4,30.31,South,175,0.0,0.0,88,0.00,,,0.00,VWS V14.01,2013-05-18 04:40:00,
2013-05-18 00:41:00,46.8,43.4,30.31,South,175,0.0,0.0,88,0.00,,CLR,0.00,VWS V14.01,2013-05-18 04:41:00,
2013-05-18 00:46:00,46.7,43.0,30.31,South,175,0.0,0.0,87,0.00,,CLR,0.00,VWS V14.01,2013-05-18 04:46:00,
2013-05-18 00:50:00,46.5,42.8,30.31,South,175,0.0,0.0,87,0.00,,,0.00,VWS V14.01,2013-05-18 04:50:00,
2013-05-18 00:51:00,46.5,42.8,30.31,South,175,0.0,0.0,87,0.00,,CLR,0.00,VWS V14.01,2013-05-18 04:51:00,
2013-05-18 00:56:00,46.4,43.0,30.31,South,175,0.0,0.0,88,0.00,,CLR,0.00,VWS V14.01,2013-05-18 04:56:00,
2013-05-18 01:00:00,46.3,43.0,30.31,South,175,0.0,0.0,88,0.00,,,0.00,VWS V14.01,2013-05-18 05:00:00,
2013-05-18 01:01:00,46.3,43.0,30.31,South,175,0.0,0.0,88,0.00,,CLR,0.00,VWS V14.01,2013-05-18 05:01:00,
2013-05-18 01:06:00,46.2,43.1,30.31,South,175,0.0,0.0,89,0.00,,CLR,0.00,VWS V14.01,2013-05-18 05:06:00,
2013-05-18 01:10:00,46.1,43.0,30.31,South,175,0.0,0.0,89,0.00,,,0.00,VWS V14.01,2013-05-18 05:10:00,
2013-05-18 01:11:00,46.1,43.0,30.31,South,175,0.0,0.0,89,0.00,,CLR,0.00,VWS V14.01,2013-05-18 05:11:00,
2013-05-18 01:16:00,46.0,43.0,30.31,South,175,0.0,0.0,89,0.00,,CLR,0.00,VWS V14.01,2013-05-18 05:16:00,
2013-05-18 01:20:00,45.9,42.8,30.31,South,175,0.0,0.0,89,0.00,,,0.00,VWS V14.01,2013-05-18 05:20:00,
2013-05-18 01:21:00,45.9,42.8,30.31,South,175,0.0,0.0,89,0.00,,CLR,0.00,VWS V14.01,2013-05-18 05:21:00,
2013-05-18 01:26:00,45.8,42.8,30.31,South,175,0.0,0.0,89,0.00,,CLR,0.00,VWS V14.01,2013-05-18 05:26:00,
2013-05-18 01:30:00,45.7,42.9,30.31,South,175,0.0,0.0,90,0.00,,,0.00,VWS V14.01,2013-05-18 05:30:00,
2013-05-18 01:31:00,45.7,42.9,30.31,South,175,0.0,0.0,90,0.00,,CLR,0.00,VWS V14.01,2013-05-18 05:31:00,
2013-05-18 01:36:00,45.6,42.8,30.31,South,175,0.0,0.0,90,0.00,,CLR,0.00,VWS V14.01,2013-05-18 05:36:00,
2013-05-18 01:40:00,45.5,42.7,30.31,South,175,0.0,0.0,90,0.00,,,0.00,VWS V14.01,2013-05-18 05:40:00,
2013-05-18 01:41:00,45.5,42.7,30.31,South,175,0.0,0.0,90,0.00,,CLR,0.00,VWS V14.01,2013-05-18 05:41:00,
2013-05-18 01:46:00,45.5,42.7,30.31,South,175,0.0,0.0,90,0.00,,CLR,0.00,VWS V14.01,2013-05-18 05:46:00,
2013-05-18 01:50:00,45.4,42.6,30.31,South,175,0.0,0.0,90,0.00,,,0.00,VWS V14.01,2013-05-18 05:50:00,
2013-05-18 01:51:00,45.4,42.6,30.31,South,175,0.0,0.0,90,0.00,,CLR,0.00,VWS V14.01,2013-05-18 05:51:00,
2013-05-18 01:56:00,45.3,42.5,30.31,South,175,0.0,0.0,90,0.00,,CLR,0.00,VWS V14.01,2013-05-18 05:56:00,
2013-05-18 02:00:00,45.2,42.7,30.31,South,175,0.0,0.0,91,0.00,,,0.00,VWS V14.01,2013-05-18 06:00:00,
2013-05-18 02:01:00,45.2,42.7,30.31,South,175,0.0,0.0,91,0.00,,CLR,0.00,VWS V14.01,2013-05-18 06:01:00,
2013-05-18 02:06:00,45.1,42.3,30.31,South,175,0.0,0.0,90,0.00,,CLR,0.00,VWS V14.01,2013-05-18 06:06:00,
2013-05-18 02:10:00,45.0,42.5,30.31,South,175,0.0,0.0,91,0.00,,,0.00,VWS V14.01,2013-05-18 06:10:00,
2013-05-18 02:11:00,45.0,42.5,30.31,South,175,0.0,0.0,91,0.00,,CLR,0.00,VWS V14.01,2013-05-18 06:11:00,
2013-05-18 02:16:00,44.9,42.4,30.31,South,175,0.0,0.0,91,0.00,,CLR,0.00,VWS V14.01,2013-05-18 06:16:00,
2013-05-18 02:20:00,44.9,42.4,30.31,South,175,0.0,0.0,91,0.00,,,0.00,VWS V14.01,2013-05-18 06:20:00,
2013-05-18 02:21:00,44.9,42.4,30.31,South,175,0.0,0.0,91,0.00,,CLR,0.00,VWS V14.01,2013-05-18 06:21:00,
2013-05-18 02:26:00,44.9,42.4,30.30,South,175,0.0,0.0,91,0.00,,CLR,0.00,VWS V14.01,2013-05-18 06:26:00,
2013-05-18 02:30:00,44.9,42.4,30.31,South,175,0.0,0.0,91,0.00,,,0.00,VWS V14.01,2013-05-18 06:30:00,
2013-05-18 02:31:00,44.9,42.4,30.31,South,175,0.0,0.0,91,0.00,,CLR,0.00,VWS V14.01,2013-05-18 06:31:00,
2013-05-18 02:36:00,44.8,42.3,30.30,South,175,0.0,0.0,91,0.00,,CLR,0.00,VWS V14.01,2013-05-18 06:36:00,
2013-05-18 02:40:00,44.8,42.3,30.30,South,175,0.0,0.0,91,0.00,,,0.00,VWS V14.01,2013-05-18 06:40:00,
2013-05-18 02:41:00,44.8,42.3,30.30,South,175,0.0,0.0,91,0.00,,CLR,0.00,VWS V14.01,2013-05-18 06:41:00,
2013-05-18 02:46:00,44.8,42.3,30.30,South,175,0.0,0.0,91,0.00,,CLR,0.00,VWS V14.01,2013-05-18 06:46:00,
2013-05-18 02:50:00,44.7,42.2,30.30,South,175,0.0,0.0,91,0.00,,,0.00,VWS V14.01,2013-05-18 06:50:00,
2013-05-18 02:51:00,44.7,42.2,30.30,South,175,0.0,0.0,91,0.00,,CLR,0.00,VWS V14.01,2013-05-18 06:51:00,
2013-05-18 02:56:00,44.6,42.1,30.30,South,175,0.0,0.0,91,0.00,,CLR,0.00,VWS V14.01,2013-05-18 06:56:00,
2013-05-18 03:00:00,44.6,42.1,30.30,South,175,0.0,0.0,91,0.00,,,0.00,VWS V14.01,2013-05-18 07:00:00,
2013-05-18 03:01:00,44.6,42.1,30.30,South,175,0.0,0.0,91,0.00,,CLR,0.00,VWS V14.01,2013-05-18 07:01:00,
2013-05-18 03:06:00,44.5,42.0,30.30,South,175,0.0,0.0,91,0.00,,CLR,0.00,VWS V14.01,2013-05-18 07:06:00,
2013-05-18 03:10:00,44.4,41.9,30.31,South,175,0.0,0.0,91,0.00,,,0.00,VWS V14.01,2013-05-18 07:10:00,
2013-05-18 03:11:00,44.4,41.9,30.31,South,175,0.0,0.0,91,0.00,,CLR,0.00,VWS V14.01,2013-05-18 07:11:00,
2013-05-18 03:16:00,44.3,41.8,30.31,South,175,0.0,0.0,91,0.00,,CLR,0.00,VWS V14.01,2013-05-18 07:16:00,
2013-05-18 03:20:00,44.4,42.2,30.31,South,175,0.0,0.0,92,0.00,,,0.00,VWS V14.01,2013-05-18 07:20:00,
2013-05-18 03:21:00,44.4,42.2,30.31,South,175,0.0,0.0,92,0.00,,CLR,0.00,VWS V14.01,2013-05-18 07:21:00,
2013-05-18 03:26:00,44.4,42.2,30.31,South,175,0.0,0.0,92,0.00,,CLR,0.00,VWS V14.01,2013-05-18 07:26:00,
2013-05-18 03:30:00,44.4,42.2,30.31,South,175,0.0,0.0,92,0.00,,,0.00,VWS V14.01,2013-05-18 07:30:00,
2013-05-18 03:31:00,44.4,42.2,30.31,South,175,0.0,0.0,92,0.00,,CLR,0.00,VWS V14.01,2013-05-18 07:31:00,
2013-05-18 03:36:00,44.4,42.2,30.31,South,175,0.0,0.0,92,0.00,,CLR,0.00,VWS V14.01,2013-05-18 07:36:00,
2013-05-18 03:40:00,44.3,42.1,30.31,South,175,0.0,0.0,92,0.00,,,0.00,VWS V14.01,2013-05-18 07:40:00,
2013-05-18 03:41:00,44.3,42.1,30.31,South,175,0.0,0.0,92,0.00,,CLR,0.00,VWS V14.01,2013-05-18 07:41:00,
2013-05-18 03:46:00,44.2,42.0,30.31,South,175,0.0,0.0,92,0.00,,CLR,0.00,VWS V14.01,2013-05-18 07:46:00,
2013-05-18 03:50:00,44.2,42.0,30.31,South,175,0.0,0.0,92,0.00,,CLR,0.00,VWS V14.01,2013-05-18 07:50:00,
2013-05-18 03:55:00,44.1,41.9,30.31,South,175,0.0,0.0,92,0.00,,CLR,0.00,VWS V14.01,2013-05-18 07:55:00,
2013-05-18 04:00:00,44.0,41.8,30.31,South,175,0.0,0.0,92,0.00,,CLR,0.00,VWS V14.01,2013-05-18 08:00:00,
2013-05-18 04:05:00,43.9,41.7,30.31,South,175,0.0,0.0,92,0.00,,CLR,0.00,VWS V14.01,2013-05-18 08:05:00,
2013-05-18 04:10:00,43.8,41.6,30.32,South,175,0.0,0.0,92,0.00,,CLR,0.00,VWS V14.01,2013-05-18 08:10:00,
2013-05-18 04:15:00,43.7,41.5,30.32,South,175,0.0,0.0,92,0.00,,CLR,0.00,VWS V14.01,2013-05-18 08:15:00,
2013-05-18 04:20:00,43.5,41.3,30.32,South,175,0.0,0.0,92,0.00,,CLR,0.00,VWS V14.01,2013-05-18 08:20:00,
2013-05-18 04:25:00,43.5,41.3,30.32,South,175,0.0,0.0,92,0.00,,CLR,0.00,VWS V14.01,2013-05-18 08:25:00,
2013-05-18 04:30:00,43.4,41.2,30.32,South,175,0.0,0.0,92,0.00,,CLR,0.00,VWS V14.01,2013-05-18 08:30:00,
2013-05-18 04:35:00,43.3,41.1,30.32,South,175,0.0,0.0,92,0.00,,CLR,0.00,VWS V14.01,2013-05-18 08:35:00,
2013-05-18 04:40:00,43.1,40.9,30.32,South,175,0.0,0.0,92,0.00,,CLR,0.00,VWS V14.01,2013-05-18 08:40:00,
2013-05-18 04:45:00,43.1,40.9,30.32,South,175,0.0,0.0,92,0.00,,CLR,0.00,VWS V14.01,2013-05-18 08:45:00,
2013-05-18 04:50:00,43.0,40.8,30.33,South,175,0.0,0.0,92,0.00,,CLR,0.00,VWS V14.01,2013-05-18 08:50:00,
2013-05-18 04:55:00,42.9,40.7,30.33,South,175,0.0,0.0,92,0.00,,CLR,0.00,VWS V14.01,2013-05-18 08:55:00,
2013-05-18 05:00:00,42.8,40.6,30.33,South,175,0.0,0.0,92,0.00,,CLR,0.00,VWS V14.01,2013-05-18 09:00:00,
2013-05-18 05:05:00,42.7,40.5,30.33,South,175,0.0,0.0,92,0.00,,CLR,0.00,VWS V14.01,2013-05-18 09:05:00,
2013-05-18 05:10:00,42.5,40.3,30.34,South,175,0.0,0.0,92,0.00,,CLR,0.00,VWS V14.01,2013-05-18 09:10:00,
2013-05-18 05:15:00,42.5,40.3,30.34,South,175,0.0,0.0,92,0.00,,CLR,0.00,VWS V14.01,2013-05-18 09:15:00,
2013-05-18 05:20:00,42.3,40.2,30.34,South,175,0.0,0.0,92,0.00,,CLR,0.00,VWS V14.01,2013-05-18 09:20:00,
2013-05-18 05:25:00,42.2,40.0,30.34,South,175,0.0,0.0,92,0.00,,CLR,0.00,VWS V14.01,2013-05-18 09:25:00,
2013-05-18 05:30:00,42.0,39.8,30.34,West,265,0.0,1.0,92,0.00,,CLR,0.00,VWS V14.01,2013-05-18 09:30:00,
2013-05-18 05:35:00,42.0,39.8,30.34,West,269,0.0,0.0,92,0.00,,CLR,0.00,VWS V14.01,2013-05-18 09:35:00,
2013-05-18 05:40:00,41.9,40.0,30.34,West,269,0.0,0.0,93,0.00,,CLR,0.00,VWS V14.01,2013-05-18 09:40:00,
2013-05-18 05:45:00,41.9,40.0,30.34,West,269,0.0,0.0,93,0.00,,CLR,0.00,VWS V14.01,2013-05-18 09:45:00,
2013-05-18 05:50:00,41.9,40.0,30.35,NW,321,0.0,0.0,93,0.00,,CLR,0.00,VWS V14.01,2013-05-18 09:50:00,
2013-05-18 05:55:00,42.0,40.1,30.35,NW,321,0.0,0.0,93,0.00,,CLR,0.00,VWS V14.01,2013-05-18 09:55:00,
2013-05-18 06:00:00,42.0,40.1,30.35,NW,321,0.0,0.0,93,0.00,,CLR,0.00,VWS V14.01,2013-05-18 10:00:00,
2013-05-18 06:10:00,42.5,40.3,30.34,South,175,0.0,0.0,92,0.00,,OVC150,0.00,VWS V14.01,2013-05-18 10:10:00,
2013-05-18 06:20:00,42.3,40.2,30.34,South,175,0.0,0.0,92,0.00,,OVC150,0.00,VWS V14.01,2013-05-18 10:20:00,
2013-05-18 06:40:00,41.9,40.0,30.34,West,269,0.0,0.0,93,0.00,,OVC150,0.00,VWS V14.01,2013-05-18 10:40:00,
2013-05-18 06:50:00,41.9,40.0,30.35,NW,321,0.0,0.0,93,0.00,,OVC150,0.00,VWS V14.01,2013-05-18 10:50:00,
2013-05-18 07:00:00,42.0,40.1,30.35,NW,321,0.0,0.0,93,0.00,,OVC150,0.00,VWS V14.01,2013-05-18 11:00:00,